OBJECT TN

Last updated on Wed May 04 2022 00:02:05 GMT+0000 (Coordinated Universal Time)

1 52432U 98067TN 22123.37902943 .00239164 00000+0 37174-2 0 9991 2 52432 51.6456 198.4496 0005885 51.8663 29.3639 15.52549074 16

Satellite not in orbit